Retour au catalogue

THORAD AGENA D DEB

ActifPO
NORAD 42535·DEBRIS·🇺🇸 United States

Lancé Apr 8, 1970 depuis Vandenberg Space Force Base

Loading…

Prochains Passages (prochaines 24 heures)

TLE

FraisSource: Space-Track

Époque: Sep 14, 2026, 03:46 UTC

1 42535U 70025SR  26257.15752228  .00001678  00000-0  15490-2 0  9990
2 42535  99.8558 213.8402 0077272  32.7776 327.8136 13.82816113642301

Suivez THORAD AGENA D DEB en temps réel avec AllMySat

Download on the App Store